Regional Weather Roundup
Issued by NWS

Home | Current Version | Previous Version | Graphics & Text | Print | Product List | Glossary On
Versions: 1 2 3 4 5 6 7 8 9 10 11 12 13 14 15 16 17 18 19 20 21 22 23 24 25 26 27 28 29 30 31 32 33 34 35 36 37 38 39 40 41 42 43 44 45 46 47 48 49 50
000
ASUS43 KLOT 260603
RWRIL

ILLINOIS REGIONAL WEATHER ROUNDUP
NATIONAL WEATHER SERVICE CHICAGO/ROMEOVILLE IL
100 AM CDT WED APR 26 2017

NOTE: "FAIR" INDICATES FEW OR NO CLOUDS BELOW 12,000 FEET WITH NO
SIGNIFICANT WEATHER AND/OR OBSTRUCTIONS TO VISIBILITY.

* THESE STATIONS ARE NOT UNDER NWS QUALITY CONTROL. THEY ALSO MAY NOT
  REPORT WEATHER SUCH AS PRECIPITATION OR FOG.

ILZ001-002-007-009-015-016-024-260700-
NORTHWEST ILLINOIS

CITY           SKY/WX    TMP DP  RH WIND       PRES   REMARKS
MOLINE         MOCLDY    72  48  42 S15G25    29.43S
6HR MIN TEMP:  69; 6HR MAX TEMP:  75; 6HR PCP: TRACE;

STERLING*      CLOUDY    68  53  58 SE9       29.46F
SAVANNA*       CLOUDY    67  50  54 SE9       29.44F
$$

ILZ003-004-008-010-011-017-018-260700-
NORTH CENTRAL ILLINOIS

CITY           SKY/WX    TMP DP  RH WIND       PRES   REMARKS
ROCKFORD       CLOUDY    67  52  58 SE14G22   29.50F
6HR MIN TEMP:  67; 6HR MAX TEMP:  76;

FREEPORT*      CLOUDY    66  52  59 SE16      29.49S
ROCHELLE*      CLOUDY    67  54  63 S17G24    29.49F
DE KALB*       CLOUDY    66  54  65 SE15      29.52S
$$

ILZ005-006-012>014-019>023-260700-
NORTHEAST ILLINOIS

CITY           SKY/WX    TMP DP  RH WIND       PRES   REMARKS
CHICAGO-OHARE  CLOUDY    68  53  58 S10       29.53F
6HR MIN TEMP:  66; 6HR MAX TEMP:  76;

CHICAGO-MIDWAY CLOUDY    69  54  58 S10       29.55F
6HR MIN TEMP:  69; 6HR MAX TEMP:  78;

AURORA         CLOUDY    68  54  60 SE12      29.53F
6HR MIN TEMP:  67; 6HR MAX TEMP:  76;

LANSING*       CLOUDY    65  56  73 SE8       29.57F
WAUKEGAN       PTCLDY    57  51  80 SE10      29.54F
6HR MIN TEMP:  56; 6HR MAX TEMP:  60;

DUPAGE AIRPORT CLOUDY    68  55  63 S13       29.52F
6HR MIN TEMP:  68; 6HR MAX TEMP:  75;

WHEELING       CLOUDY    67  55  65 S9        29.55F
6HR MIN TEMP:  63; 6HR MAX TEMP:  73;

MORRIS*        CLOUDY    68  54  61 S15       29.52F
NORTHERLY ISL    N/A     59  53  80 SE6         N/A
$$

LMZ740>746-260700-
SOUTHERN LAKE MICHIGAN

STATION/POSITION SKY/WX   TEMP    WIND        PRES    VSBY  WAVE
                          AIR SEA DIR/SP/G                  HT/PER
                          (F)     (DEG/KT/KT) (MB)    (MI)  (FT/S)
SOUTHERN BUOY              49 42   70/ 10/ 10 1002.3          0
HARRISON CRIB              63     150/ 18/ 19   N/A
BURNHAM HARBOR             59     130/  4/  6   N/A
CALUMET HARBOR             68     150/  7/ 11 1000.8F
BURNS HARBOR               69     160/  9/ 16 1002.4F
MICHIGAN CITY              68     150/  9/ 10   N/A
ST. JOSEPH                 60 50  160/  8/ 10 1002.4F         0
$$

ILZ025>027-034>036-040-047-049-050-058-095>099-260700-
WEST-CENTRAL ILLINOIS

CITY           SKY/WX    TMP DP  RH WIND       PRES   REMARKS
QUINCY         MOCLDY    71  52  50 S14       29.45F
GALESBURG*     CLOUDY    68  50  52 S12       29.46S
MACOMB*        CLOUDY    69  50  50 S13       29.48F
JACKSONVILLE*  MOCLDY    68  50  53 S10       29.49F
PITTSFIELD*    CLOUDY    71  52  51 S12       29.48F
$$

ILZ028>032-037-038-041>044-048-051>054-059>061-260700-
CENTRAL ILLINOIS

CITY           SKY/WX    TMP DP  RH WIND       PRES   REMARKS
PONTIAC        CLOUDY    68  56  65 S14       29.53F
BLOOMINGTON    MOCLDY    65  55  70 S13       29.54F
DECATUR        CLOUDY    67  56  67 S14       29.55F
PEORIA         CLOUDY    68  51  54 S12       29.50F
6HR MIN TEMP:  68; 6HR MAX TEMP:  77;

SPRINGFIELD    PTCLDY    69  51  52 S14       29.51F
6HR MIN TEMP:  69; 6HR MAX TEMP:  77;

TAYLORVILLE    NOT AVBL
$$

ILZ033-039-045-046-055>057-062-063-260700-
EAST-CENTRAL ILLINOIS

CITY           SKY/WX    TMP DP  RH WIND       PRES   REMARKS
CHAMPAIGN      PTCLDY    67  55  65 SE16      29.57F
MATTOON        CLOUDY    66  58  75 SE9       29.58F
PARIS*         CLOUDY    65  57  75 SE10      29.61F
$$

ILZ079-100>102-260700-
SOUTHWEST ILLINOIS

CITY           SKY/WX    TMP DP  RH WIND       PRES   REMARKS
ALTON          PTCLDY    66  51  59 SE8       29.52F
BELLEVILLE     CLOUDY    65  54  66 E5        29.51F
CAHOKIA*       MOCLDY    68  50  52 S5        29.51F
SPARTA*        CLOUDY    66  53  62 SE7       29.57F
$$

ILZ064>066-069>071-074>076-080>082-084>086-088>090-092>094-260700-
SOUTH-CENTRAL ILLINOIS

CITY           SKY/WX    TMP DP  RH WIND       PRES   REMARKS
CARBONDALE     CLOUDY    64  56  75 S5        29.59R
6HR MIN TEMP:  64; 6HR MAX TEMP:  74;

EFFINGHAM*     CLOUDY    66  58  76 SE8       29.60F
MARION         CLOUDY    68  55  64 S3        29.61R
MT. VERNON     CLOUDY    65  56  72 S6        29.60S
CENTRALIA*     CLOUDY    67  58  74 SE8       29.57F
SALEM*         CLOUDY    68  56  64 SE8       29.58S
$$

ILZ067-068-072-073-078-083-087-091-260700-
SOUTHEAST ILLINOIS

CITY           SKY/WX    TMP DP  RH WIND       PRES   REMARKS
LAWRENCEVILLE  MOCLDY    63  57  81 SE8       29.63S
FLORA*         MOCLDY    64  58  80 SE7       29.60F
FAIRFIELD*     CLOUDY    65  57  74 SE3       29.60S
HARRISBURG*    CLOUDY    66  57  72 S5        29.60F
ROBINSON*      CLOUDY    64  57  78 SE8       29.63F
CARMI*         PTCLDY    61  58  87 SE8       29.61S
$$

ABBREVIATIONS USED IN REMARKS
   TC - TEMPERATURE IN CELSIUS
  WCI - WIND CHILL INDEX
   HX - HEAT INDEX
  VSB - VISIBILITY
$$





USA.gov is the U.S. government's official web portal to all federal, state and local government web resources and services.